ATS 1 1 02608U 66110A 09182.65472496 -.00000157 00000-0 10000-3 0 9777 2 02608 7.8880 310.5411 0003839 191.4825 168.5980 1.00292067 72651 ATS 3 1 03029U 67111A 09182.39915061 -.00000101 00000-0 10000-3 0 4851 2 03029 9.4148 317.9565 0014607 41.2060 318.9607 1.00272455152524 ORIZURU (DEBUT) 1 20479U 90013B 09183.81056720 .00000030 00000-0 13244-3 0 3045 2 20479 99.0706 103.3016 0539745 129.9289 235.0551 12.83685351909036 SURFSAT 1 23711U 95059B 09184.05015304 -.00000024 00000-0 32807-4 0 2738 2 23711 100.3015 186.2965 0368624 82.3915 281.8958 13.12566932654510 MAQSAT H 1 25023U 97066A 09184.07378425 -.00000024 00000-0 -27739-3 0 6679 2 25023 7.5823 203.9935 6496579 173.6565 202.5846 3.09492110131842 MAQSAT B 1 25024U 97066B 09183.13080853 -.00000004 00000-0 -16318-3 0 7277 2 25024 7.5822 200.9045 6506580 178.8901 183.9680 3.08766508131714 TEAMSAT 1 25025U 97066C 09184.00087154 -.00000119 00000-0 -97267-3 0 7310 2 25025 7.6107 215.2756 6505819 150.9754 270.7806 3.07908746131368 OPAL (OO-38) 1 26063U 00004C 09184.10921609 -.00000025 00000-0 11594-4 0 5450 2 26063 100.2126 333.5707 0036708 216.0591 143.8110 14.35866848494230 FALCONSAT 1 26064U 00004D 09184.36399831 -.00000005 00000-0 18692-4 0 5235 2 26064 100.2129 331.8912 0037869 222.3078 137.5188 14.35420106494139 PICOSAT 1 & 2 [TETHERED] 1 26080U 00004H 09183.46072483 .00000119 00000-0 56115-4 0 1114 2 26080 100.2242 356.4332 0033176 166.8462 193.3608 14.40340897493688 PICOSAT 3 1 26091U 00004J 09184.41553350 .00000145 00000-0 60377-4 0 6534 2 26091 100.2226 8.9535 0031972 126.6848 233.7293 14.43406519493765 PICOSAT 4 1 26092U 00004K 09184.04116701 .00000066 00000-0 39475-4 0 4961 2 26092 100.2105 351.2601 0035550 160.9485 199.3025 14.40286418492988 PICOSAT 5 1 26093U 00004L 09183.56579737 .00000252 00000-0 89187-4 0 3882 2 26093 100.2225 14.8622 0033711 111.9204 248.5584 14.44948608494270 PICOSAT 6 1 26094U 00004M 09183.99905073 .00000076 00000-0 43030-4 0 7993 2 26094 100.2169 349.4985 0035938 171.4685 188.7116 14.39575366492482 SNAP 1 1 26386U 00033C 09184.57850410 -.00000031 00000-0 35860-5 0 7498 2 26386 98.3822 216.9807 0012613 138.4740 221.7425 14.65147213481563 CHAMP 1 26405U 00039B 09183.86822623 .00009159 00000-0 38854-4 0 9139 2 26405 87.2227 307.1403 0003090 82.0608 278.1020 15.85070202512133 PICOSAT 9 1 26930U 01043B 09184.01166914 -.00000085 00000-0 -57497-6 0 1869 2 26930 67.0023 1.6825 0001826 254.0622 106.0282 14.30047125405005 PROBA 1 1 26958U 01049B 09184.43465050 -.00000041 00000-0 18803-5 0 7510 2 26958 97.6216 246.5349 0080712 314.9762 44.4930 14.89672916418242 CUTE-1 (CO-55) 1 27844U 03031E 09183.55729194 .00000033 00000-0 35778-4 0 6138 2 27844 98.7129 192.5045 0011062 97.9347 262.3085 14.20644658311447 CANX-1 1 27847U 03031H 09183.60659676 .00000011 00000-0 25132-4 0 5402 2 27847 98.7063 193.5083 0010323 77.1051 283.1255 14.20967078311489 CUBESAT XI-IV (CO-57) 1 27848U 03031J 09183.53697069 .00000022 00000-0 30798-4 0 5612 2 27848 98.7152 191.5459 0010655 101.3336 258.9031 14.20445968311401 NAXING 1 1 28221U 04012B 09183.79257116 -.00000091 00000-0 -44308-5 0 2136 2 28221 97.4888 218.1829 0012315 142.1762 218.0360 14.87901385282634 ST5-A 1 28980U 06008A 09184.46891312 .00002015 00000-0 11973-3 0 282 2 28980 105.6922 184.2804 2357303 195.3179 156.2378 10.61355154126719 ST5-B 1 28981U 06008B 09184.54494071 .00005509 15664-5 19280-3 0 819 2 28981 105.6717 204.4988 2335919 175.3465 187.4122 10.73785975127563 ST5-C 1 28982U 06008C 09183.97004902 .00004062 15696-5 17169-3 0 818 2 28982 105.6905 198.8549 2345804 183.4788 174.6834 10.69677266127223 GENESIS 1 1 29252U 06029A 09184.49109189 -.00000104 00000-0 57166-5 0 8120 2 29252 64.5086 302.9025 0031584 208.4941 151.4449 15.03394194163367 FALCONSAT-3 1 30776U 07006E 09183.90592780 .00000214 00000-0 18550-4 0 6051 2 30776 35.4347 4.0402 0001498 7.0094 353.0642 15.03263596127466 GENESIS 2 1 31789U 07028A 09184.51597149 -.00000006 00000-0 13147-4 0 5597 2 31789 64.5038 333.9351 0057952 260.1706 99.2861 15.03050641110588